Wind_Speed
8 7 7 7 6 6 6 7 6 6 7 7 6 5 5 5 6 6 6 6 5 7 8 8 8 8 9 10 10 10 10 11 12 12 12 11 11 10 9 9 8 7 6
7 6 6 6 6 5 5 6 6 6 6 6 5 4 4 4 4 5 5 5 6 7 8 8 8 9 9 10 10 11 11 12 12 14 14 13 13 12 12 11 10 9 8
6 5 5 5 4 5 5 5 5 5 4 4 4 3 2 2 2 4 4 5 5 6 7 8 8 8 9 10 10 11 12 12 12 13 14 15 15 14 14 13 12 12 11
5 4 4 3 3 4 4 3 3 3 3 2 2 2 1 1 2 2 2 3 4 4 5 6 7 7 7 8 9 11 12 13 13 13 14 15 17 17 16 15 15 14 13
5 4 3 3 2 2 2 2 2 2 1 1 1 1 1 1 1 1 1 1 2 2 4 5 5 5 5 6 8 9 10 11 13 14 14 15 16 18 18 17 17 17 16
5 4 3 3 3 2 2 2 2 1 1 0 1 1 1 1 1 0 0 1 1 1 1 3 4 5 5 5 6 7 9 10 11 13 14 15 17 17 19 19 19 19 18
6 5 4 4 4 4 4 4 4 3 2 2 2 2 2 2 2 1 1 1 1 1 1 2 3 4 5 6 6 6 7 8 10 12 13 14 16 17 18 18 19 19 20
7 6 6 5 5 5 5 5 4 4 4 3 3 3 2 2 2 2 2 1 1 1 1 1 2 3 4 5 6 6 7 8 8 10 11 12 14 15 17 19 20 20 20
9 8 7 7 6 6 5 5 5 4 4 3 3 2 2 2 2 2 1 1 1 1 1 2 3 4 4 5 6 7 7 8 9 10 11 11 13 14 16 18 20 21 22
10 9 8 7 7 6 5 5 4 4 3 2 2 1 1 1 1 1 1 1 1 1 2 2 3 4 5 6 6 7 8 8 9 10 11 12 13 14 15 16 17 20 22
11 10 9 8 8 7 6 5 4 4 3 2 2 1 1 1 1 1 2 2 2 2 3 3 4 5 6 7 7 8 9 10 10 11 12 13 14 15 15 16 17 18 20
12 12 11 10 9 8 7 6 6 5 4 4 4 3 3 3 3 3 4 5 5 5 5 5 6 7 8 8 9 9 10 10 11 12 13 14 14 15 16 17 17 18 19
13 12 12 11 10 10 9 9 8 7 7 6 6 6 6 6 6 7 7 7 8 8 9 8 8 9 10 10 10 11 11 12 13 13 14 15 16 17 17 18 19 19 20
14 13 13 13 12 12 12 11 11 10 9 9 9 9 9 9 10 10 10 11 11 12 12 12 12 12 12 12 13 13 13 14 14 15 16 16 17 18 19 20 21 21 22
15 15 15 14 14 14 14 14 14 13 13 13 13 13 13 13 13 14 14 14 14 15 15 15 16 16 16 16 16 16 16 16 17 17 17 18 19 20 20 21 22 23 23
16 17 16 16 16 17 17 17 17 17 16 16 16 16 17 17 17 17 18 18 18 18 18 18 18 19 19 20 20 20 19 19 20 20 20 21 21 21 22 23 24 24 25
18 18 18 18 18 19 19 19 20 20 20 19 19 20 20 20 21 21 21 21 21 21 21 21 21 22 22 22 23 23 24 24 24 24 24 24 24 24 25 25 26 26 27
20 20 20 20 21 21 22 22 22 22 22 22 23 23 23 23 24 24 24 24 24 24 24 24 24 24 25 25 25 26 26 27 27 27 27 27 27 27 27 28 28 28 29
21 22 22 23 23 24 24 25 25 25 25 25 25 26 26 26 26 27 27 27 28 28 28 28 28 28 28 29 29 29 30 30 30 30 31 31 31 31 31 31 31 31 32
23 23 24 25 26 26 27 27 27 27 28 28 28 29 29 29 30 30 30 31 31 31 31 31 31 32 32 33 33 33 33 33 33 34 34 34 34 34 34 35 35 34 34
24 25 26 27 28 28 29 29 29 30 31 31 31 32 32 33 33 34 34 34 34 34 34 34 34 35 35 36 37 37 36 36 35 36 37 37 37 37 37 37 38 38 37
25 26 27 29 29 30 32 32 32 33 34 34 34 35 35 36 36 37 37 37 37 37 38 38 39 38 38 39 40 40 40 39 38 39 41 40 40 40 40 41 41 41 41
25 27 29 30 30 31 32 34 34 33 34 34 36 37 37 38 39 40 40 40 40 41 42 42 43 42 42 43 44 45 45 45 43 42 44 43 43 43 44 44 44 44 43
27 29 30 31 32 33 34 35 36 36 35 37 38 39 41 41 41 42 43 43 43 44 45 46 46 45 46 46 47 48 49 49 47 47 47 47 46 47 47 48 47 47 47
31 32 32 34 35 36 37 37 39 39 40 40 41 43 43 44 44 44 45 45 46 46 47 48 49 49 50 50 51 52 53 53 52 51 52 52 50 51 51 51 51 51 50
34 34 34 37 38 38 39 40 40 40 41 42 42 43 43 44 46 47 47 48 48 49 50 51 52 53 54 55 56 57 57 58 58 57 56 57 56 57 56 54 54 54 54
Wind_Direction
282 281 279 282 284 281 280 280 281 286 288 285 279 277 274 259 255 258 249 238 234 230 226 224 225 227 229 229 229 230 229 229 229 228 227 228 228 228 227 225 224 223 224
279 271 272 276 275 274 272 273 274 280 284 284 282 280 271 268 258 247 245 243 244 240 230 226 229 232 237 237 234 234 232 233 234 236 234 233 233 234 234 233 231 230 230
269 265 266 266 266 264 262 263 269 270 273 276 275 272 262 251 250 248 244 242 240 240 233 231 234 238 243 239 237 236 236 237 238 238 238 237 237 237 237 237 237 235 234
260 258 252 247 249 252 250 249 253 260 267 273 269 264 256 234 243 245 240 241 239 236 234 234 237 242 243 240 240 239 240 240 240 240 241 240 240 240 239 240 240 240 239
246 237 221 217 225 224 222 219 222 236 257 283 283 282 278 272 264 256 229 239 236 233 236 231 237 244 246 245 244 244 242 242 242 241 244 244 242 241 241 241 242 242 242
223 209 199 197 194 187 172 163 161 166 156 96 58 59 61 56 45 358 337 303 282 256 238 227 232 238 245 246 247 246 245 248 247 246 246 244 243 244 244 242 242 242 243
206 195 187 180 169 156 142 135 133 131 126 116 102 90 79 71 67 55 39 26 21 300 258 225 232 238 246 249 250 254 252 251 248 249 249 247 244 244 244 244 243 244 244
201 191 181 172 161 153 150 144 137 131 123 116 109 102 91 79 69 62 53 40 29 1 279 253 258 258 258 255 256 262 261 258 255 252 251 249 245 246 246 247 246 247 248
199 191 183 177 171 165 161 153 146 141 137 127 116 106 94 78 68 65 61 36 6 342 313 286 277 275 273 269 267 266 266 262 261 257 254 252 250 250 251 252 250 249 249
199 194 189 185 184 181 178 173 165 160 153 148 134 115 91 70 50 41 40 25 359 322 311 308 297 290 284 281 278 275 272 268 266 264 260 258 256 257 256 255 255 253 251
200 198 197 197 197 196 197 195 190 188 189 190 190 187 209 267 298 314 319 320 318 306 299 297 293 292 291 288 287 284 279 274 272 269 267 265 263 262 261 259 258 259 256
204 203 205 206 209 210 211 213 216 220 226 231 236 239 248 259 270 286 298 302 303 301 297 294 292 291 292 291 290 289 285 281 278 275 271 268 267 266 264 263 263 261 260
209 211 213 216 220 222 223 227 232 238 245 252 256 258 262 267 274 280 286 291 293 293 292 291 289 288 289 290 289 288 286 283 281 279 277 274 271 269 267 266 265 265 263
217 221 225 228 230 233 235 238 242 246 252 259 264 268 270 273 278 282 284 286 286 286 287 286 285 285 286 287 287 287 284 282 280 279 278 277 274 272 270 268 266 266 265
226 230 234 237 239 241 244 247 250 253 257 263 269 273 276 277 280 282 284 285 285 283 283 283 282 282 283 283 284 283 282 280 279 278 277 276 275 273 271 270 269 267 266
236 239 241 243 245 248 251 253 255 258 261 266 270 273 276 279 281 282 283 285 284 283 282 281 281 281 281 281 282 281 280 278 277 277 276 276 275 274 272 270 269 268 267
241 243 245 247 250 251 254 256 259 262 265 267 270 273 275 278 280 281 283 284 284 284 283 282 280 280 280 280 280 280 280 279 277 276 275 275 274 274 273 272 270 268 267
246 247 249 251 254 255 257 259 261 264 267 270 272 274 276 278 280 281 281 282 282 283 283 283 282 281 280 279 278 278 278 277 277 277 276 275 274 273 273 272 270 269 268
251 251 252 254 256 258 260 263 265 267 269 270 272 274 276 277 279 280 281 281 282 282 282 282 282 282 281 279 278 277 277 276 275 275 275 274 274 273 272 271 270 269 268
253 254 256 257 259 261 263 265 267 269 271 272 273 274 275 276 277 278 279 279 279 280 280 281 281 281 281 280 279 277 277 278 277 276 275 274 273 273 272 271 270 269 268
256 256 257 259 261 263 264 266 268 269 270 271 272 272 273 274 275 276 277 278 278 278 279 280 279 279 279 278 277 276 276 276 277 277 276 275 274 273 272 271 270 269 268
258 259 260 262 264 266 267 267 268 269 270 270 271 272 272 273 274 275 276 276 276 277 278 278 278 278 277 276 276 276 276 276 275 275 275 274 273 272 271 271 270 269 269
266 266 266 266 267 268 269 268 269 271 272 272 273 274 274 273 274 275 275 275 275 275 276 276 277 277 277 276 276 276 276 276 275 273 273 272 271 271 270 269 268 268 268
272 272 270 270 272 272 273 273 274 273 274 274 274 274 275 274 275 274 274 274 274 274 275 275 276 276 276 276 276 276 276 276 275 274 273 271 269 269 268 267 267 266 266
276 275 274 274 274 273 273 272 273 273 272 273 274 274 274 273 273 273 273 273 273 273 273 274 275 275 275 275 275 275 275 275 274 273 273 272 270 268 267 266 266 266 265
280 279 278 277 277 275 273 273 273 274 274 274 274 274 274 274 273 273 273 273 273 273 274 274 275 276 275 275 275 275 275 274 274 273 273 272 271 269 267 266 266 265 265
Height
5889 5888 5888 5887 5887 5886 5886 5885 5885 5884 5884 5883 5883 5884 5884 5884 5885 5885 5886 5886 5887 5888 5889 5890 5891 5891 5892 5893 5894 5895 5896 5897 5898 5900 5901 5902 5903 5904 5905 5906 5906 5907 5907
5887 5887 5886 5886 5885 5885 5884 5884 5884 5883 5883 5883 5882 5883 5883 5883 5883 5884 5884 5885 5885 5886 5887 5888 5889 5889 5890 5891 5891 5892 5894 5895 5896 5898 5899 5900 5901 5903 5904 5905 5905 5906 5906
5885 5885 5885 5884 5884 5884 5883 5883 5883 5882 5882 5882 5882 5882 5882 5883 5883 5883 5883 5884 5884 5885 5885 5886 5887 5887 5888 5888 5889 5890 5891 5892 5894 5895 5896 5897 5899 5900 5901 5903 5904 5904 5905
5883 5883 5883 5883 5883 5883 5882 5882 5882 5882 5882 5882 5882 5882 5882 5882 5882 5882 5883 5883 5883 5883 5884 5884 5885 5885 5886 5886 5887 5888 5889 5890 5891 5892 5893 5894 5896 5897 5899 5900 5901 5902 5903
5882 5882 5882 5882 5882 5882 5882 5882 5881 5881 5881 5881 5881 5881 5881 5882 5882 5882 5882 5882 5882 5882 5882 5883 5883 5884 5884 5884 5885 5885 5886 5887 5888 5889 5890 5891 5892 5894 5895 5897 5898 5899 5901
5880 5881 5881 5881 5881 5881 5881 5881 5881 5881 5881 5881 5881 5881 5881 5881 5881 5881 5881 5881 5881 5881 5881 5882 5882 5882 5883 5883 5883 5883 5884 5884 5885 5885 5886 5887 5889 5890 5891 5893 5894 5896 5897
5879 5880 5880 5881 5881 5881 5881 5881 5881 5881 5881 5881 5881 5881 5881 5881 5881 5881 5881 5881 5881 5880 5880 5881 5881 5881 5881 5882 5882 5882 5882 5882 5882 5883 5883 5884 5885 5886 5888 5889 5891 5892 5893
5878 5879 5879 5880 5881 5881 5881 5881 5881 5881 5882 5882 5882 5881 5881 5882 5881 5881 5881 5881 5881 5880 5880 5880 5880 5880 5880 5880 5880 5880 5880 5880 5880 5880 5880 5881 5882 5883 5884 5885 5886 5888 5889
5877 5878 5878 5879 5880 5880 5881 5881 5881 5881 5882 5882 5882 5882 5882 5881 5881 5881 5881 5881 5880 5880 5880 5879 5879 5879 5879 5879 5879 5878 5878 5878 5878 5878 5878 5878 5879 5880 5880 5881 5882 5883 5884
5875 5876 5877 5878 5879 5880 5880 5881 5881 5881 5881 5881 5881 5881 5881 5881 5881 5881 5881 5880 5880 5880 5879 5879 5878 5878 5877 5877 5877 5876 5876 5876 5876 5876 5876 5876 5876 5876 5877 5877 5878 5878 5879
5874 5875 5876 5877 5878 5879 5879 5880 5880 5880 5880 5881 5880 5880 5880 5880 5880 5880 5880 5879 5879 5879 5878 5877 5877 5876 5876 5875 5875 5874 5874 5873 5873 5873 5873 5873 5873 5873 5873 5873 5874 5874 5874
5872 5874 5875 5876 5877 5877 5878 5878 5879 5879 5879 5879 5879 5879 5879 5879 5879 5878 5878 5877 5877 5877 5876 5876 5875 5874 5873 5873 5872 5872 5871 5871 5870 5870 5870 5870 5869 5869 5870 5870 5870 5870 5870
5871 5872 5873 5874 5875 5875 5876 5876 5877 5877 5877 5877 5877 5877 5877 5877 5876 5876 5876 5875 5874 5874 5873 5873 5872 5871 5871 5870 5869 5869 5868 5868 5867 5867 5866 5866 5865 5865 5865 5865 5865 5865 5865
5869 5870 5871 5872 5872 5873 5874 5874 5874 5874 5874 5874 5874 5874 5874 5874 5873 5873 5873 5872 5871 5871 5870 5870 5869 5868 5867 5866 5866 5865 5864 5864 5863 5863 5862 5862 5861 5861 5861 5860 5860 5860 5860
5866 5867 5868 5869 5870 5870 5871 5871 5871 5871 5871 5871 5871 5870 5870 5870 5869 5869 5868 5868 5868 5867 5866 5865 5865 5864 5863 5862 5861 5861 5860 5859 5859 5858 5857 5857 5856 5856 5855 5855 5855 5855 5854
5863 5864 5865 5865 5866 5867 5867 5867 5867 5867 5867 5867 5866 5866 5865 5865 5864 5864 5863 5862 5862 5862 5861 5861 5860 5859 5858 5857 5856 5855 5854 5854 5853 5852 5852 5851 5850 5850 5849 5849 5849 5848 5848
5859 5860 5861 5861 5862 5862 5862 5863 5863 5863 5862 5862 5861 5861 5860 5859 5858 5858 5857 5856 5856 5855 5855 5854 5854 5853 5852 5851 5850 5849 5848 5847 5846 5845 5845 5844 5843 5843 5842 5842 5841 5841 5841
5855 5855 5856 5856 5857 5857 5857 5857 5857 5857 5857 5856 5855 5855 5854 5853 5852 5851 5850 5849 5849 5848 5848 5847 5846 5845 5844 5843 5842 5841 5840 5839 5838 5837 5837 5836 5836 5835 5834 5834 5833 5833 5833
5850 5850 5851 5851 5851 5851 5851 5851 5851 5850 5850 5849 5849 5848 5847 5846 5845 5844 5843 5842 5841 5840 5839 5839 5838 5836 5835 5834 5833 5832 5831 5830 5830 5829 5828 5827 5826 5826 5825 5825 5824 5824 5823
5845 5845 5845 5845 5845 5845 5844 5844 5844 5843 5843 5842 5841 5840 5839 5838 5837 5835 5834 5833 5832 5831 5830 5829 5828 5827 5826 5824 5823 5822 5821 5820 5820 5819 5818 5817 5816 5816 5815 5814 5814 5813 5813
5838 5838 5838 5837 5837 5837 5837 5836 5835 5835 5834 5833 5833 5831 5830 5829 5828 5826 5825 5824 5822 5821 5820 5819 5818 5817 5816 5814 5812 5811 5810 5810 5809 5808 5807 5806 5805 5805 5804 5803 5803 5802 5802
5830 5830 5830 5829 5828 5829 5828 5827 5827 5826 5825 5824 5823 5821 5820 5819 5818 5816 5815 5814 5812 5811 5809 5807 5806 5805 5804 5802 5800 5799 5798 5798 5798 5797 5794 5795 5793 5793 5792 5791 5791 5790 5790
5823 5822 5821 5820 5820 5820 5819 5818 5817 5816 5815 5814 5813 5811 5810 5808 5807 5805 5804 5802 5801 5799 5797 5795 5794 5793 5792 5790 5788 5786 5785 5784 5784 5784 5782 5782 5781 5780 5779 5778 5777 5777 5777
5815 5814 5812 5812 5811 5810 5809 5809 5807 5806 5804 5803 5801 5800 5798 5797 5795 5793 5791 5790 5788 5786 5784 5781 5780 5779 5778 5776 5774 5772 5770 5769 5770 5769 5767 5767 5767 5766 5765 5764 5763 5763 5763
5806 5804 5803 5802 5801 5800 5799 5798 5796 5794 5793 5791 5789 5787 5786 5784 5782 5780 5778 5776 5775 5773 5770 5767 5766 5764 5763 5761 5758 5756 5755 5753 5753 5754 5751 5750 5751 5750 5749 5749 5748 5748 5748
5796 5795 5793 5792 5790 5788 5787 5785 5784 5782 5780 5778 5776 5773 5771 5770 5768 5765 5763 5762 5760 5758 5756 5753 5751 5749 5746 5744 5741 5739 5737 5735 5734 5735 5735 5732 5732 5730 5731 5733 5732 5731 5731